WEST ERIE NM NW of Lorain, OH (45005)

Conditions for Thursday

Daily
Weekly
Monthly
Marine Data Graph

Current Weather/Wave Observations

Air Temperature: 58° F
Humidity: 99
Wind direction (W Dir): SSW (195 - 204 Degrees)
Wind Speed (W Spd): 1.9 kts (2.2 mph)
Wind Gust (W Spd): 1.9 kts (2.2 mph)
Atmospheric Pressure (AP): 29.48 in

Updated: 5:10 PM EDT on May 25, 2017

Marine & Boating Location Search

Enter a coastal zip code for marine weather.

Current Wave Detail Observations

Water Depth: 33 ft
Wave Height: 0.95 ft
Spectral Peak Period: 4.3 sec
Average Wave Period: 3.3 sec
Sampling Interval: 0.6 sec
Wave Record: 2400 sec

Updated: 5:00 PM EDT on May 25, 2017

General Information

Location: 41.677 North -82.398 West
Buoy Type: 2.4-meter discus buoy
Buoy Hull: 2.4D06
Payload: SCOOP payload
Owned by: NDBC
Windspeed: Measured by obtained from anemometer
Sea Surface: Measured by Intake

Weather and Wave Data

Time Temp Humidity Wind Dominant Wave Pressure
  Air
(°F)
Water
(°F)
  Dir Speed
(kts)
Speed
(mph)
Period
(sec)
Height
(ft)
Range
(ft)
Atmo.
(in)
Tend.
(in)
20:10 57 56 92 ENE 11.7 13.4 29.50 -
20:30 57 56 93 ENE 9.7 11.2 29.50 -
20:40 57 56 93 ENE 11.7 13.4 29.49 -
20:50 57 56 92 East 11.7 13.4 4 2.30 exactly 2.3 29.49 -
21:20 57 56 92 ENE 13.6 15.7 29.49 -
21:30 57 56 91 ENE 13.6 15.7 29.49 -
21:40 57 56 91 ENE 11.7 13.4 29.49 -
21:50 57 56 92 ENE 13.6 15.7 4 1.97 exactly 2.0 29.49 -
22:10 57 56 91 ENE 15.6 17.9 29.48 -
22:30 57 56 93 East 13.6 15.7 29.49 -
22:40 57 56 94 East 11.7 13.4 29.49 -
22:50 57 56 93 ENE 11.7 13.4 4 2.30 exactly 2.3 29.47 -
23:20 57 56 94 ENE 11.7 13.4 29.47 -
23:30 58 56 90 East 11.7 13.4 29.47 -
23:40 57 56 93 East 11.7 13.4 29.47 -
00:10 57 56 92 ENE 11.7 13.4 29.49 -
00:20 57 56 92 ENE 11.7 13.4 29.49 -
00:30 57 56 92 ENE 11.7 13.4 29.49 -
00:40 57 56 93 ENE 11.7 13.4 29.48 -
00:50 57 56 92 ENE 11.7 13.4 4 1.97 exactly 2.0 29.48 -
01:10 57 56 93 East 11.7 13.4 29.47 -
01:20 57 56 92 East 11.7 13.4 29.47 -
01:30 57 56 92 East 11.7 13.4 29.46 -
01:40 58 56 90 East 13.6 15.7 29.46 -
01:50 58 56 90 East 13.6 15.7 4 1.97 exactly 2.0 29.45 -
02:10 58 56 90 East 15.6 17.9 29.44 -
02:20 58 56 89 East 15.6 17.9 29.45 -
02:30 57 56 92 East 13.6 15.7 29.44 -
02:40 57 56 92 East 13.6 15.7 29.44 -
02:50 57 56 92 East 13.6 15.7 4 1.97 exactly 2.0 29.44 -
03:10 58 56 90 East 13.6 15.7 29.44 -
03:20 58 56 91 East 13.6 15.7 29.44 -
03:30 58 56 90 East 15.6 17.9 29.44 -
03:40 58 56 90 East 13.6 15.7 29.44 -
03:50 58 56 89 East 13.6 15.7 4 2.30 exactly 2.3 29.44 -
04:30 57 56 93 East 11.7 13.4 29.44 -
04:40 57 56 93 East 9.7 11.2 29.44 -
04:50 57 56 92 East 9.7 11.2 4 1.97 exactly 2.0 29.43 -
05:00 58 56 89 East 11.7 13.4 29.43 -0.01
05:10 58 56 88 East 11.7 13.4 29.43 -
05:20 57 56 92 East 11.7 13.4 29.44 -
05:30 57 56 93 East 13.6 15.7 29.44 -
05:40 57 56 93 East 11.7 13.4 29.44 -
05:50 57 56 93 East 11.7 13.4 4 1.97 exactly 2.0 29.44 -
06:10 57 56 93 East 11.7 13.4 29.44 -
06:20 57 56 92 East 11.7 13.4 29.45 -
06:30 57 56 93 East 11.7 13.4 29.45 -
06:40 57 56 95 East 9.7 11.2 29.45 -
06:50 57 56 96 East 9.7 11.2 4 1.97 exactly 2.0 29.44 -
07:00 57 56 96 East 9.7 11.2 29.44 +0.01
07:10 57 56 97 East 7.8 8.9 29.44 -
07:30 56 56 99 East 7.8 8.9 29.44 -
07:40 56 56 99 East 9.7 11.2 29.44 -
07:50 57 56 94 East 9.7 11.2 5 1.64 exactly 1.6 29.44 -
08:10 57 56 94 ENE 9.7 11.2 29.44 -
08:20 57 56 94 East 9.7 11.2 29.44 -
08:30 57 56 94 East 9.7 11.2 29.45 -
08:40 57 56 93 East 9.7 11.2 29.45 -
08:50 57 56 92 East 9.7 11.2 4 1.64 exactly 1.6 29.45 -
09:00 57 56 92 East 9.7 11.2 29.46 +0.01
09:10 57 56 92 East 9.7 11.2 29.46 -
09:20 57 56 93 East 9.7 11.2 29.46 -
09:30 57 56 92 East 7.8 8.9 29.46 -
09:40 57 56 93 East 9.7 11.2 29.46 -
09:50 57 56 92 East 9.7 11.2 4 1.64 exactly 1.6 29.46 -
10:00 57 56 93 East 9.7 11.2 29.46 +0.02
10:30 57 56 95 East 9.7 11.2 29.47 -
10:40 57 56 96 East 9.7 11.2 29.47 -
10:50 57 56 97 East 7.8 8.9 5 1.64 exactly 1.6 29.47 -
11:10 57 56 97 East 5.8 6.7 29.46 -
11:20 57 56 96 East 5.8 6.7 29.46 -
11:30 56 56 99 East 7.8 8.9 29.46 -
11:40 56 56 100 East 5.8 6.7 29.46 -
11:50 56 56 100 ESE 5.8 6.7 5 1.64 exactly 1.6 29.46 -
12:10 57 56 97 East 7.8 8.9 29.46 -
12:20 57 56 97 East 7.8 8.9 29.46 -
12:40 57 56 97 ESE 5.8 6.7 29.47 -
12:50 57 56 97 ESE 5.8 6.7 4 1.31 exactly 1.3 29.47 -
13:10 57 56 97 ESE 3.9 4.5 29.47 -
13:20 57 56 98 ESE 3.9 4.5 29.47 -
13:30 57 56 98 ESE 5.8 6.7 29.47 -
13:40 57 56 98 ESE 5.8 6.7 29.48 -
13:50 57 56 98 ESE 5.8 6.7 4 1.31 exactly 1.3 29.48 -
14:10 57 56 98 ESE 5.8 6.7 29.48 -
14:20 57 56 98 ESE 5.8 6.7 29.48 -
14:30 57 56 98 ESE 5.8 6.7 29.48 -
14:40 57 56 99 ESE 5.8 6.7 29.48 -
14:50 57 56 99 SE 5.8 6.7 4 0.98 exactly 1.0 29.48 -
15:00 57
-
99 SE 5.8 6.7 29.48 +0.02
15:10 57 56 100 SE 5.8 6.7 29.48 -
15:20 57 56 99 SE 5.8 6.7 29.48 -
15:30 57 56 99 SE 5.8 6.7 29.48 -
15:40 57 56 99 SE 5.8 6.7 29.48 -
15:50 57 56 100 SE 3.9 4.5 4 0.98 exactly 1.0 29.48 -
16:00 57 56 100 SSE 3.9 4.5 29.48 +0.01
16:10 57 56 100 SSE 3.9 4.5 29.48 -
16:20 58 56 97 South 1.9 2.2 29.48 -
16:30 58 56 97 SSE 1.9 2.2 29.48 -
16:40 58 56 98 SSE 1.9 2.2 29.48 -
16:50 58 56 98 South 1.9 2.2 4 0.98 exactly 1.0 29.48 -
17:10 58 56 99 SSW 1.9 2.2 29.48 -

Detailed Wave Spectra

Time Water Depth Wave Height Spectral Peak Period Average Wave Period Sampling Interval Wave Record
20:00 33 ft 2.92 ft 4.2 sec 3.7 sec 0.6 sec 2400 sec
21:00 33 ft 2.30 ft 4.2 sec 3.7 sec 0.6 sec 2400 sec
22:00 33 ft 2.10 ft 4.3 sec 3.5 sec 0.6 sec 2400 sec
23:00 33 ft 2.23 ft 4.3 sec 3.4 sec 0.6 sec 2400 sec
01:00 33 ft 2.00 ft 4.2 sec 3.4 sec 0.6 sec 2400 sec
02:00 33 ft 2.10 ft 4.2 sec 3.5 sec 0.6 sec 2400 sec
03:00 33 ft 2.07 ft 4.2 sec 3.4 sec 0.6 sec 2400 sec
04:00 33 ft 2.23 ft 4.0 sec 3.4 sec 0.6 sec 2400 sec
06:00 33 ft 1.94 ft 4.3 sec 3.4 sec 0.6 sec 2400 sec
08:00 33 ft 1.80 ft 4.5 sec 3.6 sec 0.6 sec 2400 sec
11:00 33 ft 1.61 ft 4.5 sec 3.5 sec 0.6 sec 2400 sec
12:00 33 ft 1.57 ft 4.5 sec 3.6 sec 0.6 sec 2400 sec
13:00 33 ft 1.35 ft 4.2 sec 3.5 sec 0.6 sec 2400 sec
14:00 33 ft 1.21 ft 4.0 sec 3.5 sec 0.6 sec 2400 sec
17:00 33 ft 0.95 ft 4.3 sec 3.3 sec 0.6 sec 2400 sec